When you browse on this site, cookies collect data to enhance your experience and personalize the content and advertising you see.
Visit our Privacy Policy to learn more. By continuing to use the site, you agree to this use of cookies and data.

Stündliche Wetter Naumovka

Heute, 12 August, Mittwoch

Zeit Temperatur Niederschläge Wind Luftdruck Luftfeuchtigkeit
00:00 +10°C° 0 mm 2 m/S 748 mmHg 87%
01:00 +10°C° 0 mm 2 m/S 748 mmHg 88%
02:00 +10°C° 0 mm 3 m/S 748 mmHg 92%
03:00 +11°C° 0 mm 3 m/S 748 mmHg 90%
04:00 +11°C° 0 mm 3 m/S 748 mmHg 88%
05:00 +12°C° 0 mm 3 m/S 748 mmHg 87%
06:00 +12°C° 0 mm 3 m/S 748 mmHg 85%
07:00 +12°C° 0 mm 4 m/S 748 mmHg 84%
08:00 +13°C° 0 mm 4 m/S 748 mmHg 82%
09:00 +14°C° 0 mm 4 m/S 748 mmHg 76%
10:00 +15°C° 0 mm 4 m/S 749 mmHg 70%
11:00 +18°C° 0 mm 4 m/S 749 mmHg 63%
12:00 +18°C° 0.1 mm 4 m/S 749 mmHg 62%
13:00 +18°C° 0.1 mm 4 m/S 749 mmHg 62%
14:00 +19°C° 0.1 mm 4 m/S 749 mmHg 61%
15:00 +19°C° 0.1 mm 4 m/S 749 mmHg 63%
16:00 +18°C° 0.1 mm 3 m/S 749 mmHg 66%
17:00 +18°C° 0.1 mm 3 m/S 749 mmHg 68%
18:00 +17°C° 0.1 mm 3 m/S 749 mmHg 74%
19:00 +15°C° 0.1 mm 2 m/S 749 mmHg 81%
20:00 +14°C° 0.1 mm 2 m/S 749 mmHg 87%
21:00 +13°C° 0 mm 2 m/S 749 mmHg 90%
22:00 +12°C° 0 mm 2 m/S 749 mmHg 93%
23:00 +12°C° 0 mm 2 m/S 748 mmHg 96%

Morgen, 13 August, Donnerstag

Zeit Temperatur Niederschläge Wind Luftdruck Luftfeuchtigkeit
00:00 +10°C° 0 mm 2 m/S 748 mmHg 96%
01:00 +10°C° 0 mm 2 m/S 748 mmHg 96%
02:00 +9°C° 0 mm 2 m/S 748 mmHg 96%
03:00 +9°C° 0 mm 2 m/S 748 mmHg 97%
04:00 +8°C° 0 mm 2 m/S 748 mmHg 97%
05:00 +8°C° 0 mm 2 m/S 748 mmHg 97%
06:00 +9°C° 0 mm 2 m/S 748 mmHg 90%
07:00 +12°C° 0 mm 2 m/S 748 mmHg 82%
08:00 +13°C° 0 mm 3 m/S 748 mmHg 74%
09:00 +14°C° 0 mm 3 m/S 748 mmHg 69%
10:00 +16°C° 0 mm 3 m/S 748 mmHg 63%
11:00 +17°C° 0 mm 3 m/S 748 mmHg 58%
12:00 +17°C° 0.1 mm 3 m/S 748 mmHg 56%
13:00 +17°C° 0.1 mm 3 m/S 748 mmHg 55%
14:00 +18°C° 0.1 mm 3 m/S 748 mmHg 54%
15:00 +17°C° 0 mm 3 m/S 748 mmHg 56%
16:00 +17°C° 0 mm 3 m/S 748 mmHg 58%
17:00 +17°C° 0 mm 2 m/S 748 mmHg 60%
18:00 +16°C° 0 mm 2 m/S 748 mmHg 66%
19:00 +14°C° 0 mm 2 m/S 748 mmHg 72%
20:00 +13°C° 0 mm 1 m/S 748 mmHg 79%
21:00 +12°C° 0 mm 1 m/S 748 mmHg 82%
22:00 +11°C° 0 mm 1 m/S 748 mmHg 86%
23:00 +10°C° 0 mm 1 m/S 748 mmHg 90%

übermorgen, 14 August, Freitag

Zeit Temperatur Niederschläge Wind Luftdruck Luftfeuchtigkeit
00:00 +9°C° 0 mm 1 m/S 748 mmHg 91%
01:00 +9°C° 0 mm 1 m/S 748 mmHg 91%
02:00 +8°C° 0 mm 1 m/S 748 mmHg 92%
03:00 +8°C° 0 mm 1 m/S 748 mmHg 90%
04:00 +9°C° 0 mm 1 m/S 749 mmHg 89%
05:00 +9°C° 0 mm 1 m/S 749 mmHg 88%
06:00 +11°C° 0 mm 1 m/S 749 mmHg 81%
07:00 +13°C° 0 mm 1 m/S 749 mmHg 73%
08:00 +15°C° 0 mm 1 m/S 749 mmHg 66%
09:00 +16°C° 0 mm 2 m/S 749 mmHg 61%
10:00 +17°C° 0 mm 2 m/S 749 mmHg 57%
11:00 +19°C° 0 mm 2 m/S 749 mmHg 52%
12:00 +19°C° 0 mm 2 m/S 749 mmHg 51%
13:00 +19°C° 0 mm 2 m/S 749 mmHg 51%
14:00 +19°C° 0 mm 2 m/S 749 mmHg 51%
15:00 +19°C° 0 mm 2 m/S 749 mmHg 52%
16:00 +19°C° 0 mm 2 m/S 749 mmHg 53%
17:00 +19°C° 0 mm 2 m/S 748 mmHg 54%
18:00 +18°C° 0 mm 1 m/S 749 mmHg 62%
19:00 +15°C° 0 mm 1 m/S 749 mmHg 70%
20:00 +12°C° 0 mm 0 m/S 749 mmHg 78%
21:00 +11°C° 0 mm 0 m/S 749 mmHg 80%
22:00 +11°C° 0 mm 0 m/S 749 mmHg 82%
23:00 +10°C° 0 mm 0 m/S 749 mmHg 85%

15 August, Samstag

Zeit Temperatur Niederschläge Wind Luftdruck Luftfeuchtigkeit
00:00 +10°C° 0 mm 0 m/S 749 mmHg 86%
01:00 +9°C° 0 mm 0 m/S 749 mmHg 88%
02:00 +9°C° 0 mm 0 m/S 749 mmHg 89%
03:00 +9°C° 0 mm 0 m/S 749 mmHg 89%
04:00 +9°C° 0 mm 0 m/S 749 mmHg 90%
05:00 +10°C° 0 mm 1 m/S 749 mmHg 90%
06:00 +12°C° 0 mm 1 m/S 749 mmHg 82%
07:00 +14°C° 0 mm 1 m/S 749 mmHg 75%
08:00 +18°C° 0 mm 1 m/S 749 mmHg 67%
09:00 +19°C° 0 mm 1 m/S 749 mmHg 63%
10:00 +21°C° 0 mm 1 m/S 749 mmHg 58%
11:00 +21°C° 0 mm 2 m/S 749 mmHg 53%
12:00 +23°C° 0.1 mm 2 m/S 749 mmHg 55%
13:00 +23°C° 0.1 mm 2 m/S 749 mmHg 56%
14:00 +23°C° 0.1 mm 2 m/S 749 mmHg 57%
15:00 +23°C° 0.3 mm 2 m/S 748 mmHg 65%
16:00 +22°C° 0.3 mm 1 m/S 748 mmHg 73%
17:00 +21°C° 0.3 mm 1 m/S 748 mmHg 80%
18:00 +20°C° 0.1 mm 1 m/S 748 mmHg 84%
19:00 +19°C° 0.1 mm 1 m/S 748 mmHg 88%
20:00 +16°C° 0.1 mm 1 m/S 748 mmHg 92%
21:00 +16°C° 0 mm 1 m/S 748 mmHg 93%
22:00 +15°C° 0 mm 1 m/S 748 mmHg 94%
23:00 +15°C° 0 mm 1 m/S 748 mmHg 95%

16 August, Sonntag

Zeit Temperatur Niederschläge Wind Luftdruck Luftfeuchtigkeit
00:00 +15°C° 0 mm 1 m/S 748 mmHg 95%
01:00 +15°C° 0 mm 1 m/S 748 mmHg 95%
02:00 +15°C° 0 mm 1 m/S 748 mmHg 95%
03:00 +15°C° 0 mm 2 m/S 748 mmHg 95%
04:00 +14°C° 0 mm 2 m/S 747 mmHg 96%
05:00 +14°C° 0 mm 2 m/S 747 mmHg 96%
06:00 +15°C° 0 mm 2 m/S 747 mmHg 92%
07:00 +17°C° 0 mm 2 m/S 747 mmHg 88%
08:00 +19°C° 0 mm 2 m/S 747 mmHg 84%
09:00 +20°C° 0 mm 2 m/S 747 mmHg 76%
10:00 +22°C° 0 mm 3 m/S 748 mmHg 68%
11:00 +25°C° 0 mm 3 m/S 748 mmHg 59%
12:00 +26°C° 0 mm 3 m/S 747 mmHg 57%
13:00 +27°C° 0 mm 3 m/S 747 mmHg 55%
14:00 +27°C° 0 mm 3 m/S 747 mmHg 52%
15:00 +26°C° 0.4 mm 3 m/S 747 mmHg 62%
16:00 +25°C° 0.4 mm 2 m/S 747 mmHg 73%
17:00 +23°C° 0.4 mm 2 m/S 747 mmHg 83%
18:00 +21°C° 0 mm 2 m/S 747 mmHg 86%
19:00 +20°C° 0 mm 2 m/S 747 mmHg 89%
20:00 +18°C° 0 mm 2 m/S 747 mmHg 93%
21:00 +19°C° 0 mm 1 m/S 747 mmHg 94%
22:00 +18°C° 0 mm 1 m/S 747 mmHg 94%
23:00 +18°C° 0 mm 1 m/S 747 mmHg 95%

17 August, Montag

Zeit Temperatur Niederschläge Wind Luftdruck Luftfeuchtigkeit
00:00 +18°C° 0 mm 1 m/S 748 mmHg 95%
01:00 +16°C° 0 mm 1 m/S 748 mmHg 96%
02:00 +16°C° 0 mm 1 m/S 748 mmHg 96%
03:00 +16°C° 0 mm 1 m/S 748 mmHg 96%
04:00 +15°C° 0 mm 1 m/S 748 mmHg 96%
05:00 +15°C° 0 mm 1 m/S 748 mmHg 96%
06:00 +18°C° 0 mm 1 m/S 748 mmHg 92%
07:00 +19°C° 0 mm 1 m/S 749 mmHg 87%
08:00 +21°C° 0 mm 1 m/S 749 mmHg 82%
09:00 +23°C° 0 mm 1 m/S 749 mmHg 72%
10:00 +25°C° 0 mm 1 m/S 749 mmHg 63%
11:00 +27°C° 0 mm 2 m/S 749 mmHg 53%
12:00 +27°C° 0 mm 1 m/S 749 mmHg 50%
13:00 +28°C° 0 mm 1 m/S 749 mmHg 48%
14:00 +29°C° 0 mm 1 m/S 749 mmHg 45%
15:00 +28°C° 0 mm 1 m/S 748 mmHg 51%
16:00 +27°C° 0 mm 1 m/S 748 mmHg 57%
17:00 +26°C° 0 mm 1 m/S 748 mmHg 63%
18:00 +24°C° 0 mm 1 m/S 748 mmHg 70%
19:00 +22°C° 0 mm 1 m/S 748 mmHg 77%
20:00 +20°C° 0 mm 1 m/S 748 mmHg 83%
21:00 +20°C° 0 mm 1 m/S 748 mmHg 85%
22:00 +19°C° 0 mm 1 m/S 748 mmHg 88%
23:00 +18°C° 0 mm 1 m/S 748 mmHg 90%
Mehr zeigen